Cloud_Cover
92 92 92 92 92 92 92 92 92 92 92 92 92 92 92 92 92 92 92 92 92 92 92 92 92 88 80 76 80 80 88 92 92 92 92 92 92 92 92 92 92 92 92 92 92 92 92 92 92 92 92 92 92 92 92 92 92 92 92 92 92 92 92 92 92 92 92 92 92
92 92 92 92 92 92 92 92 92 92 92 92 92 92 92 92 92 92 92 92 92 92 92 92 92 92 92 88 80 88 92 92 92 92 92 92 92 92 92 92 92 92 92 92 92 92 92 92 92 92 92 92 92 92 92 92 92 92 92 92 92 92 92 92 92 92 92 92 92
92 92 92 92 92 92 92 100 100 92 92 100 92 92 92 92 92 92 92 92 92 92 92 92 92 92 92 92 92 92 92 92 92 92 92 92 92 92 92 92 92 92 92 92 92 92 92 92 92 92 92 92 92 92 92 92 92 92 92 92 92 92 92 92 92 92 92 92 92
92 92 92 92 92 92 92 92 92 92 92 92 92 92 92 92 92 92 92 92 92 92 92 92 92 92 92 92 92 92 92 92 92 92 92 92 92 92 92 92 92 92 92 92 92 92 92 92 92 92 92 92 92 92 92 92 92 92 92 92 92 92 92 92 92 92 92 92 92
92 92 92 92 92 92 92 92 92 92 92 92 92 92 92 92 92 92 92 92 92 92 92 92 92 92 92 92 92 92 92 92 92 92 92 92 92 92 92 92 92 92 92 92 92 92 92 92 92 92 92 92 92 92 92 92 92 92 92 92 88 88 92 92 92 92 92 100 92
92 92 92 92 92 92 92 92 92 92 92 92 92 92 92 92 92 92 92 92 92 92 92 92 92 92 92 92 92 92 92 92 92 92 92 92 92 92 92 92 92 92 92 92 92 92 92 92 92 92 92 92 92 92 92 92 88 92 92 92 92 92 92 92 92 92 92 92 92
92 92 92 92 92 92 92 92 92 92 92 92 92 92 92 92 92 92 92 92 92 92 92 92 92 92 92 92 92 92 92 92 92 92 92 92 92 92 92 92 92 92 92 92 92 92 92 92 92 92 92 92 92 92 92 92 88 92 92 92 92 92 92 92 92 92 92 92 92
92 92 92 92 92 92 92 92 92 92 92 92 92 92 92 92 92 92 92 92 92 92 92 92 92 92 92 92 92 92 92 92 92 92 92 92 92 92 92 92 92 92 92 92 92 92 92 92 92 92 92 92 92 92 92 92 92 92 92 92 92 92 92 92 92 92 92 92 92
92 92 92 92 92 92 92 92 88 92 92 92 92 92 92 92 92 92 92 92 92 92 92 92 92 92 92 92 92 92 92 92 92 92 92 92 92 92 92 92 92 92 92 92 92 92 92 92 92 92 92 92 92 92 92 92 92 92 92 92 92 92 92 92 92 92 92 88 92
92 92 92 92 92 92 92 92 88 92 92 92 92 92 92 92 92 92 92 92 92 92 92 92 92 92 92 92 92 92 92 92 92 92 92 92 92 92 92 92 92 92 92 92 92 92 92 92 92 92 92 88 88 92 92 92 92 92 92 92 92 92 92 92 92 92 92 92 92
92 92 92 92 92 92 92 92 92 92 92 92 92 92 92 92 92 92 92 92 92 92 92 92 92 92 92 92 92 92 92 92 92 92 92 92 92 92 92 92 92 92 92 92 92 92 92 92 92 92 92 92 92 92 92 92 92 92 92 92 92 92 92 92 92 92 92 92 92
92 92 92 92 92 92 92 92 92 92 92 92 92 92 92 92 92 92 92 92 92 92 92 92 92 92 92 92 92 92 92 92 92 92 92 92 92 92 92 92 92 92 92 92 92 92 92 92 92 92 92 92 92 92 92 92 92 92 92 92 92 92 92 92 92 92 92 92 92
92 92 92 92 92 92 92 92 92 92 92 92 92 92 92 92 92 92 92 92 92 92 92 92 92 92 92 92 92 92 92 92 92 92 92 92 92 92 92 92 92 92 92 92 92 92 92 92 92 92 92 92 92 92 92 92 92 92 92 92 92 92 92 92 92 92 92 92 92
92 92 92 92 92 92 92 92 92 92 92 92 92 92 92 92 92 92 92 92 92 92 92 92 92 92 92 92 92 92 92 92 92 92 92 92 92 92 92 92 92 92 92 92 92 92 92 100 92 92 92 92 92 92 92 92 92 92 92 92 92 92 92 92 92 92 92 92 92
92 92 92 92 92 92 92 92 88 88 92 92 92 92 92 92 92 92 92 92 92 92 92 92 92 92 92 92 92 92 92 92 92 92 92 92 92 92 92 92 92 92 92 92 92 92 92 100 92 92 92 92 92 92 92 92 92 92 92 92 92 92 92 92 92 92 88 88 88
92 92 92 92 92 92 92 92 88 88 88 92 92 92 92 92 92 92 92 92 92 92 92 92 92 92 92 92 92 92 92 92 92 92 92 92 92 92 92 92 92 92 92 92 92 92 92 92 92 100 92 92 92 92 92 92 92 92 92 92 92 92 92 92 92 92 92 92 92
92 92 92 92 92 92 92 92 92 92 88 88 88 92 92 92 92 92 92 92 92 92 92 92 92 92 92 92 92 92 92 92 92 92 92 92 92 92 92 92 92 92 92 92 92 92 92 92 92 100 100 100 100 92 92 92 92 92 92 92 92 92 92 92 92 92 92 92 92
80 80 88 88 92 92 92 92 92 92 92 92 92 92 92 92 92 92 92 92 92 92 92 92 92 92 92 92 92 92 92 92 92 92 92 92 92 92 92 92 92 92 92 92 92 92 92 92 92 92 100 100 92 92 92 92 92 92 92 92 92 92 92 92 92 92 92 92 92
68 68 68 76 80 88 92 92 92 92 92 92 92 92 92 92 92 92 92 92 92 92 92 92 92 92 92 92 92 92 92 92 92 92 92 92 92 92 92 92 92 92 92 92 92 92 92 92 92 92 92 92 92 92 92 92 92 92 92 92 92 92 92 88 92 92 92 92 92
68 68 68 68 68 76 88 92 92 92 92 92 92 92 92 92 92 92 92 92 92 92 92 92 92 92 92 92 92 92 92 92 92 92 92 92 92 92 92 92 92 92 92 92 92 92 92 92 88 88 88 92 92 92 92 92 92 92 92 92 92 92 88 80 88 92 92 92 88
80 76 68 64 68 76 80 88 92 92 92 92 92 92 92 92 92 92 92 92 92 92 92 92 92 92 92 92 92 92 92 92 92 92 92 92 92 92 92 92 92 92 92 92 92 92 92 80 80 80 80 88 88 88 88 92 92 92 92 92 92 88 88 88 88 88 88 88 80
64 68 76 68 76 76 80 88 88 92 92 92 92 92 92 92 92 92 92 92 92 92 92 92 92 92 92 92 92 92 92 92 92 92 92 92 92 92 92 92 92 92 92 92 92 92 92 80 80 80 80 88 88 88 88 92 92 92 92 92 92 92 92 88 88 88 92 88 88
68 68 68 64 64 64 68 88 88 92 92 92 92 92 92 92 92 92 92 92 92 92 92 92 92 92 92 92 92 92 92 92 92 92 92 92 92 92 92 92 92 92 92 92 92 92 92 92 92 92 92 88 88 88 88 88 92 92 92 92 92 92 88 88 88 88 88 88 80
56 48 48 48 44 44 48 80 88 92 92 92 92 92 92 92 92 92 92 92 92 92 92 92 92 92 92 92 92 92 92 92 92 92 92 92 92 92 92 92 92 92 92 92 92 92 92 92 92 92 92 92 92 92 92 92 88 88 88 88 88 88 88 88 88 88 88 88 76
64 56 56 56 48 48 56 68 88 92 92 92 92 92 92 92 92 92 92 92 92 92 92 92 92 92 92 92 92 92 92 92 92 92 92 92 92 92 92 92 92 92 92 92 92 92 92 92 92 92 92 92 92 92 92 92 92 88 88 88 88 88 88 88 88 88 80 88 80
48 44 36 36 36 36 44 44 68 80 80 80 88 88 92 92 92 92 92 92 92 92 92 92 92 92 92 92 92 92 92 92 92 92 92 92 92 92 92 92 92 92 92 92 92 92 92 92 92 92 92 92 92 92 92 92 92 88 88 88 88 88 80 80 80 76 76 80 88
48 36 32 24 32 32 36 36 48 64 76 88 80 80 80 80 92 92 92 92 92 92 92 92 92 92 92 92 92 92 92 92 92 92 92 92 92 92 92 92 92 92 92 92 92 92 92 92 92 92 92 88 88 88 92 92 92 88 88 88 80 80 80 76 80 76 76 80 80
48 48 44 44 36 36 32 32 56 64 64 64 76 76 76 88 92 92 92 92 92 92 92 92 92 92 92 92 92 92 92 92 92 92 92 92 92 92 92 92 92 92 92 92 92 92 92 92 92 92 92 88 88 92 92 88 76 80 88 88 80 80 80 80 80 80 76 76 68
48 48 48 48 48 44 36 24 48 56 64 76 76 76 80 88 92 88 88 92 92 92 92 92 92 92 92 92 92 92 92 92 92 92 92 92 92 92 92 88 88 88 92 92 92 92 92 92 92 92 88 76 76 80 88 88 88 88 88 88 88 88 88 92 88 88 80 76 64
76 64 44 48 48 44 36 24 44 68 80 76 68 76 88 88 88 88 88 88 92 92 92 92 92 92 92 92 92 92 92 92 92 92 92 92 92 92 92 88 88 88 88 88 92 92 88 92 92 92 92 88 88 80 80 80 80 88 88 88 88 88 88 88 80 80 76 68 64
80 80 80 80 56 44 44 44 56 76 80 76 76 76 76 88 88 88 88 88 92 92 92 92 92 92 92 92 92 92 92 92 92 92 92 92 92 88 88 88 88 88 88 88 88 88 80 88 88 92 88 80 76 80 80 80 88 92 92 88 88 88 80 80 76 68 64 64 56
80 80 80 80 76 76 76 80 80 88 80 80 80 88 88 88 88 88 88 88 88 92 92 92 92 92 92 92 92 92 92 92 92 92 92 88 88 88 88 88 88 88 80 76 76 68 76 88 88 88 92 88 80 80 80 88 92 92 92 92 92 88 88 76 68 64 56 48 44
80 80 80 80 80 80 80 88 88 88 88 88 88 88 88 88 88 88 88 88 88 88 88 88 92 92 92 92 92 92 92 92 92 92 92 88 80 80 80 88 80 80 76 76 68 76 88 88 92 92 92 92 80 76 76 88 88 88 92 92 88 88 88 88 76 68 64 48 44
80 80 88 88 88 88 88 88 88 88 88 88 88 88 88 88 88 88 88 88 88 88 88 88 88 88 88 80 88 88 88 92 92 92 92 88 88 80 80 80 80 76 68 64 68 80 88 92 92 92 92 92 88 88 88 88 80 88 92 92 88 88 88 88 80 76 68 64 68
80 80 88 88 88 88 88 88 88 88 88 88 88 88 88 88 88 88 88 88 88 88 88 88 88 88 88 92 88 80 80 88 88 92 92 88 88 80 80 80 80 76 68 80 76 80 92 92 92 88 88 92 92 92 88 88 92 92 92 92 88 88 88 88 80 68 64 64 68
80 88 88 88 88 88 88 88 88 88 88 88 88 88 88 88 88 88 88 76 88 88 88 92 92 92 88 92 88 88 80 88 88 88 88 88 92 88 88 88 80 88 88 88 80 88 92 88 92 92 92 92 92 92 92 88 88 92 92 92 88 88 80 80 80 80 76 68 68
80 88 88 88 88 88 88 88 88 88 88 80 88 88 88 88 88 88 88 88 88 88 80 92 88 88 88 88 88 88 80 76 76 80 88 88 92 92 88 88 88 88 88 88 88 88 88 88 88 92 92 92 88 88 92 92 92 92 88 88 80 80 80 76 76 80 80 76 76
88 88 88 88 88 88 88 88 88 88 88 88 88 88 88 88 88 88 88 92 88 80 80 88 80 80 88 88 88 88 88 80 76 80 88 88 88 88 88 88 80 80 88 88 88 88 88 88 88 88 92 92 88 88 92 88 88 88 88 80 80 80 80 80 80 80 80 80 76
88 88 88 88 88 88 88 88 88 88 88 88 88 88 88 88 88 88 88 92 88 80 80 80 80 80 88 92 92 92 92 88 88 88 80 80 88 88 80 80 76 76 76 88 88 88 88 88 88 88 88 92 88 88 88 80 80 80 80 76 80 80 80 80 80 80 80 80 80
88 88 88 88 88 88 88 92 88 88 88 92 88 88 88 88 88 88 88 92 92 88 88 80 80 88 92 92 92 92 92 92 92 88 88 80 88 88 80 80 76 76 76 80 88 88 88 88 88 88 92 92 88 88 80 76 80 80 76 76 76 76 80 88 88 80 80 88 88
88 88 88 88 88 88 88 88 88 88 88 88 88 88 88 88 88 88 88 92 92 92 88 88 80 80 88 92 92 88 88 88 88 88 88 88 80 80 80 80 76 76 76 76 80 80 80 88 80 88 92 92 88 88 88 80 88 80 76 68 68 68 80 88 88 80 80 88 88